Location: Unnamed
(51.5169°N, 0.1311°W)
Time: 19:34:06
(UTC+01:00)

Tiros 1 - Pass Details

Date: 07 August 2024
Orbit: 623 x 655 km, 48.4° (Epoch: 16 September)

Event Time Altitude Azimuth Distance (km) Brightness Sun altitude
Rises 08:20:17 0° 233° (SW) 2,973 10.1 24.1°
Reaches altitude 10° 08:22:44 10° 225° (SW) 2,063 9.5 24.5°
Maximum altitude 08:27:09 39° 158° (SSE) 990 8.7 25.2°
Drops below altitude 10° 08:31:33 10° 90° (E) 2,060 11.6 25.9°
Sets 08:34:00 0° 83° (E) 2,968 11.8 26.2°
